Regional Weather Roundup
Issued by NWS

Home | Current Version | Previous Version | Text Only | Print | Product List | Glossary Off
Versions: 1 2 3 4 5 6 7 8 9 10 11 12 13 14 15 16 17 18 19 20 21 22 23 24 25 26 27 28 29 30 31 32 33 34 35 36 37 38 39 40 41 42 43 44 45 46 47 48 49 50

957
ASUS43 KOAX 220010
RWRNE

WEATHER ROUNDUP FOR NEBRASKA
NATIONAL WEATHER SERVICE OMAHA NE
600 PM CST WED FEB 21 2018

NOTES: SATELLITE DATA IS BEING USED TO AUGMENT CLOUD COVER ABOVE
       12000 FEET.
       "FAIR" INDICATES FEW OR NO CLOUDS BELOW 12,000 FEET WITH NO
       SIGNIFICANT WEATHER AND/OR OBSTRUCTIONS TO VISIBILITY.


NEZ001>004-019>022-054>056-220100-
NEBRASKA PANHANDLE

CITY           SKY/WX    TMP DP  RH WIND       PRES   REMARKS
SCOTTSBLUFF    FAIR      24  14  65 E8        30.19F WCI  15
6HR MIN TEMP:  10; 6HR MAX TEMP:  28; 6HR PCP: TRACE;

ALLIANCE       FAIR      22  12  65 S16       30.19F WCI   8
6HR MIN TEMP:  17; 6HR MAX TEMP:  26;

CHADRON        FAIR      11   3  70 NW3       30.22S
6HR MIN TEMP:   3; 6HR MAX TEMP:  16;

GORDON         FAIR      24  10  56 SW14      30.22S WCI  12
6HR MIN TEMP:  12; 6HR MAX TEMP:  27;

KIMBALL        FAIR      23  12  63 CALM      30.15F
SIDNEY         FAIR      25  11  55 SE13      30.20S WCI  14
6HR MIN TEMP:  25; 6HR MAX TEMP:  30;

$$

NEZ057>060-069>072-079>082-220100-
SOUTHWEST NEBRASKA

CITY           SKY/WX    TMP DP  RH WIND       PRES   REMARKS
NORTH PLATTE   CLOUDY    23   8  52 S5        30.37S WCI  17
6HR MIN TEMP:  17; 6HR MAX TEMP:  24;

IMPERIAL       FAIR      23  10  57 E8        30.31S WCI  14
6HR MIN TEMP:  19; 6HR MAX TEMP:  26;

LEXINGTON      CLOUDY    28   8  41 SE8       30.41S WCI  20
MCCOOK         CLOUDY    28   5  37 SE15      30.37S WCI  16
6HR MIN TEMP:  21; 6HR MAX TEMP:  31;

OGALLALA       FAIR      24  12  59 SE8       30.32R WCI  15
$$

NEZ005>010-023>029-035>040-094-220100-
NORTH CENTRAL NEBRASKA

CITY           SKY/WX    TMP DP  RH WIND       PRES   REMARKS
VALENTINE      FAIR      24  10  55 S16       30.34R WCI  11
6HR MIN TEMP:  14; 6HR MAX TEMP:  27;

AINSWORTH      FAIR      19   9  65 S12       30.37S WCI   7
BROKEN BOW     CLOUDY    25   9  50 SE10      30.40R WCI  15
6HR MIN TEMP:  16; 6HR MAX TEMP:  25;

O`NEILL        CLOUDY    21  10  61 SE6       30.45S WCI  13
ORD            CLOUDY    24   8  50 S6        30.44S WCI  17
6HR MIN TEMP:  16; 6HR MAX TEMP:  25;

THEDFORD       FAIR      22  10  60 SE6       30.36R WCI  15
$$

NEZ041-046>049-061>064-073>077-083>087-220100-
SOUTH CENTRAL NEBRASKA

CITY           SKY/WX    TMP DP  RH WIND       PRES   REMARKS
GRAND ISLAND   FAIR      26   8  46 SE9       30.49R WCI  17
6HR MIN TEMP:  19; 6HR MAX TEMP:  28;

AURORA         FAIR      26   7  44 E8        30.49S WCI  17
HASTINGS       CLOUDY    26   5  40 E10       30.46F WCI  16
6HR MIN TEMP:  19; 6HR MAX TEMP:  29;

HEBRON         CLOUDY    28  10  46 NE10      30.49F WCI  18
HOLDREGE       CLOUDY    28   5  38 E8        30.42S WCI  20
YORK           FAIR      25   7  46 CALM      30.50F
$$

NEZ011>018-030>034-042>045-220100-
NORTHEAST NEBRASKA

CITY           SKY/WX    TMP DP  RH WIND       PRES   REMARKS
NORFOLK        FAIR      23  12  62 SE7       30.50S WCI  15
6HR MIN TEMP:  15; 6HR MAX TEMP:  24;

ALBION         FAIR      23  10  58 SE6       30.49S WCI  15
BLAIR          MOCLDY    24  17  74 E7        30.55S WCI  16
COLUMBUS       FAIR      23  13  65 E8        30.54S WCI  14
FREMONT        MOCLDY    24  14  66 E6        30.57S WCI  17
TEKAMAH        FAIR      25  14  63 E7        30.59R WCI  17
6HR MIN TEMP:  17; 6HR MAX TEMP:  25;

WAYNE          FAIR      20  11  67 E7        30.55R WCI  11
$$

NEZ050>053-065>068-078-088>093-220100-
SOUTHEAST NEBRASKA

CITY           SKY/WX    TMP DP  RH WIND       PRES   REMARKS
LINCOLN        CLOUDY    25  10  53 E8        30.55F WCI  16
6HR MIN TEMP:  20; 6HR MAX TEMP:  27;

OMAHA EPPLEY   CLOUDY    25  14  63 E7        30.58R WCI  17
6HR MIN TEMP:  20; 6HR MAX TEMP:  26;

BEATRICE       CLOUDY    27  15  61 NE8       30.52F WCI  18
FALLS CITY     CLOUDY    28  19  69 NE8       30.54R WCI  20
6HR MIN TEMP:  20; 6HR MAX TEMP:  28;

NEBRASKA CITY  CLOUDY    26  19  75 NE10      30.55S WCI  16
PLATTSMOUTH    CLOUDY    25  17  70 NE7       30.55F WCI  17
$$

NEZ044-045-051>053-067-220100-
OMAHA AREA

CITY           SKY/WX    TMP DP  RH WIND       PRES   REMARKS
OMAHA EPPLEY   CLOUDY    25  14  63 E7        30.58R WCI  17
6HR MIN TEMP:  20; 6HR MAX TEMP:  26;

BLAIR          MOCLDY    24  17  74 E7        30.55S WCI  16
FREMONT        MOCLDY    24  14  66 E6        30.57S WCI  17
MILLARD        CLOUDY    27  14  58 E5        30.57F WCI  21
OFFUTT AFB     CLOUDY    25  14  63 NE7       30.56S WCI  17
PLATTSMOUTH    CLOUDY    25  17  70 NE7       30.55F WCI  17
WAHOO          CLOUDY    25  15  65 E8        30.56S WCI  16
$$




USA.gov is the U.S. government's official web portal to all federal, state and local government web resources and services.